TimeCDT,TemperatureF,Dew PointF,Humidity,Sea Level PressureIn,VisibilityMPH,Wind Direction,Wind SpeedMPH,Gust SpeedMPH,PrecipitationIn,Events,Conditions,WindDirDegrees,DateUTC
12:52 AM,53.1,48.9,86,30.32,10.0,ESE,5.8,-,N/A,,Partly Cloudy,110,2013-09-16 05:52:00
1:13 AM,55.4,51.8,88,30.32,10.0,SE,6.9,-,N/A,,Mostly Cloudy,140,2013-09-16 06:13:00
1:52 AM,55.9,51.1,84,30.30,10.0,SSE,3.5,-,N/A,,Overcast,160,2013-09-16 06:52:00
2:52 AM,55.9,52.0,87,30.29,10.0,SE,3.5,-,N/A,,Overcast,130,2013-09-16 07:52:00
3:52 AM,57.0,51.1,81,30.28,10.0,SE,6.9,-,N/A,,Overcast,140,2013-09-16 08:52:00
4:52 AM,55.9,52.0,87,30.28,10.0,SSE,5.8,-,N/A,,Overcast,150,2013-09-16 09:52:00
5:52 AM,55.9,53.1,90,30.27,10.0,SSE,6.9,-,N/A,,Overcast,150,2013-09-16 10:52:00
7:52 AM,55.9,51.1,84,30.29,10.0,SE,9.2,-,N/A,,Overcast,140,2013-09-16 12:52:00
8:52 AM,57.0,50.0,77,30.30,10.0,South,10.4,-,N/A,,Overcast,170,2013-09-16 13:52:00
9:52 AM,59.0,48.9,69,30.29,10.0,SSE,13.8,-,N/A,,Overcast,150,2013-09-16 14:52:00
10:52 AM,61.0,50.0,67,30.28,10.0,South,15.0,-,N/A,,Overcast,170,2013-09-16 15:52:00
11:52 AM,62.1,50.0,65,30.26,10.0,South,16.1,21.9,N/A,,Overcast,170,2013-09-16 16:52:00
12:52 PM,63.0,51.1,65,30.24,10.0,South,16.1,24.2,N/A,,Overcast,170,2013-09-16 17:52:00
1:52 PM,63.0,50.0,63,30.22,10.0,SSE,18.4,25.3,N/A,,Overcast,150,2013-09-16 18:52:00
2:52 PM,64.0,50.0,60,30.19,10.0,SSE,18.4,-,N/A,,Mostly Cloudy,160,2013-09-16 19:52:00
3:15 PM,66.2,50.0,56,30.19,10.0,South,15.0,24.2,N/A,,Mostly Cloudy,170,2013-09-16 20:15:00
3:52 PM,66.0,50.0,56,30.16,10.0,South,19.6,25.3,N/A,,Mostly Cloudy,170,2013-09-16 20:52:00
4:52 PM,64.9,50.0,58,30.14,10.0,South,17.3,-,N/A,,Overcast,170,2013-09-16 21:52:00
5:22 PM,62.6,50.0,63,30.14,10.0,South,16.1,-,N/A,,Overcast,170,2013-09-16 22:22:00
5:52 PM,62.1,50.0,65,30.13,10.0,South,19.6,-,N/A,,Overcast,170,2013-09-16 22:52:00
6:52 PM,62.1,51.1,67,30.11,10.0,South,18.4,-,N/A,,Overcast,180,2013-09-16 23:52:00
7:52 PM,61.0,50.0,67,30.09,10.0,South,17.3,23.0,N/A,,Overcast,170,2013-09-17 00:52:00
8:52 PM,60.1,50.0,69,30.09,10.0,South,18.4,23.0,N/A,,Overcast,190,2013-09-17 01:52:00
9:52 PM,60.1,51.1,72,30.09,10.0,South,16.1,24.2,N/A,,Overcast,180,2013-09-17 02:52:00
10:52 PM,59.0,51.1,75,30.08,10.0,South,15.0,19.6,N/A,,Overcast,180,2013-09-17 03:52:00
11:52 PM,59.0,52.0,78,30.07,10.0,South,16.1,-,N/A,,Overcast,180,2013-09-17 04:52:00